Temperature
19 19 19 18 18 18 18 19 19 20 20 20 19 19 19 19 18 18 17 17 18 18 18 18 18 18 18 19 19 18 18 18 18 18 18 18 18 18 18 18 18 17 17
19 19 19 19 19 19 19 19 19 20 19 19 19 19 19 19 18 17 17 17 17 18 18 18 17 17 18 18 18 18 18 18 18 17 17 17 17 17 17 17 17 17 17
19 19 19 19 19 19 19 19 19 19 19 19 19 18 19 18 18 17 17 17 17 17 17 18 17 17 17 18 18 17 17 17 17 17 17 17 17 17 17 17 17 17 17
19 19 19 19 19 19 19 19 19 19 19 18 18 18 18 18 18 18 18 17 17 17 17 17 17 17 17 18 18 17 17 17 17 17 17 17 17 17 17 17 17 16 16
19 19 19 19 19 19 19 19 18 18 18 18 18 18 18 18 18 18 18 18 18 17 17 17 17 17 17 17 17 17 17 17 17 17 17 17 17 17 17 17 16 16 16
19 19 19 19 19 19 18 18 18 18 18 18 18 18 18 18 18 18 18 18 18 17 17 17 17 17 17 17 17 17 17 17 17 17 17 17 17 17 17 16 16 16 16
19 19 18 18 18 18 18 18 18 17 18 17 17 18 18 18 18 18 18 18 18 18 18 17 17 17 17 17 17 17 17 17 17 17 16 16 16 16 16 16 16 16 16
19 18 18 18 18 18 18 17 17 17 17 17 17 17 17 17 18 18 18 18 18 18 18 17 17 17 17 17 17 17 17 17 17 17 16 16 16 16 16 16 16 16 16
18 18 18 18 18 18 17 17 17 17 17 17 17 17 16 17 17 17 17 17 18 18 18 17 17 17 17 17 17 17 17 17 17 17 17 17 16 16 16 16 15 15 15
18 18 18 17 17 17 17 17 17 17 17 17 17 17 16 17 17 17 17 17 17 17 17 17 17 17 17 16 17 17 16 17 17 17 17 17 17 16 16 15 15 15 15
17 17 17 17 17 17 17 17 17 17 17 16 16 16 16 16 16 16 16 17 17 17 17 17 17 17 17 16 16 16 16 17 17 17 17 17 17 16 16 15 15 15 15
17 17 17 17 17 17 17 17 17 17 17 16 16 16 16 16 16 16 16 16 16 17 17 16 17 17 17 16 16 16 16 16 17 17 17 17 17 16 16 16 16 16 16
16 16 16 16 16 16 17 16 17 17 16 16 16 16 16 16 15 15 15 16 16 16 16 16 16 16 16 16 16 16 16 16 16 16 16 17 17 16 16 16 16 16 16
15 15 15 15 15 16 16 16 16 16 16 16 16 16 16 15 15 15 15 15 15 15 16 16 16 16 16 16 16 16 16 16 16 16 16 16 17 16 16 16 16 16 16
14 14 14 14 15 15 15 16 16 16 16 16 16 16 15 15 15 15 15 15 14 14 15 16 15 15 15 15 15 15 15 16 16 16 16 16 16 16 16 16 16 16 16
13 14 14 14 15 15 15 15 15 16 16 16 15 15 15 15 15 15 14 14 14 14 14 15 15 15 15 15 15 15 15 15 15 16 16 16 16 16 16 16 16 16 16
14 14 14 15 15 15 15 15 15 15 15 15 15 15 15 15 15 14 14 14 14 14 14 15 15 15 15 15 15 15 15 15 15 15 15 15 16 16 16 16 16 16 16
15 15 15 15 15 15 15 15 16 15 15 15 15 15 15 15 15 14 14 13 14 14 14 14 14 14 14 15 15 15 14 14 15 15 15 16 16 16 16 16 16 16 16
15 15 15 15 16 16 16 15 15 15 15 15 15 15 15 15 14 14 14 13 13 13 13 14 14 14 14 14 14 14 14 14 15 15 16 16 16 16 16 16 16 16 16
15 15 15 15 15 15 15 15 15 15 15 15 15 15 15 15 14 14 14 14 14 14 14 14 14 14 14 14 14 14 14 14 15 15 15 16 16 16 16 16 16 15 15
14 14 15 14 15 15 15 14 14 14 14 15 15 15 15 15 15 15 14 14 14 14 14 14 14 14 13 13 14 14 14 14 14 15 15 15 15 16 16 16 16 15 15
14 14 13 14 14 14 14 14 14 14 14 14 14 15 14 14 15 14 14 14 14 14 14 13 13 13 13 13 13 13 13 14 14 14 14 14 14 14 14 14 15 15 15
13 13 12 12 13 13 13 14 14 14 14 14 14 14 14 14 14 14 14 14 14 14 14 13 13 13 13 13 13 13 13 13 13 13 13 14 14 13 13 13 13 14 14
12 12 12 12 12 12 13 13 13 13 13 14 14 14 14 14 14 14 14 14 14 13 14 13 13 13 13 13 13 13 13 13 13 13 13 13 13 13 13 13 13 13 13
11 11 12 12 12 12 12 13 13 13 13 13 13 13 13 13 13 14 14 14 14 13 13 14 14 13 13 13 13 13 13 13 13 13 13 12 12 12 12 12 12 12 12
11 11 12 12 12 12 12 12 12 12 12 12 12 12 12 12 13 13 13 13 13 13 13 14 14 14 14 13 13 13 13 13 13 12 12 12 12 12 12 12 12 12 12
Wind_Speed
5 4 5 9 10 9 6 4 5 3 2 3 3 5 4 7 9 10 10 7 4 2 1 2 3 5 5 4 4 5 6 5 4 6 8 9 9 8 7 5 4 4 3
4 4 4 4 5 6 8 6 3 4 1 3 4 3 1 4 7 9 11 9 6 4 2 2 2 4 5 5 5 5 6 6 6 6 7 8 9 9 8 6 5 4 3
7 4 4 5 4 6 7 4 1 3 3 4 1 2 3 5 4 4 9 11 9 7 5 4 3 3 3 5 5 6 6 7 7 7 7 7 7 7 6 5 4 4 3
10 5 3 3 3 5 3 3 3 2 2 2 2 2 1 3 2 1 2 9 11 10 8 6 5 4 4 5 5 6 6 6 6 6 6 5 5 4 4 4 3 3 3
10 6 4 1 3 1 2 4 2 1 0 1 1 2 2 2 2 2 4 6 11 12 12 9 8 6 6 6 6 6 6 6 6 6 7 6 5 4 3 3 3 3 3
7 7 4 3 1 3 2 1 3 2 2 1 2 2 3 2 2 3 2 2 3 10 11 12 11 9 8 7 7 7 7 7 7 7 6 5 4 3 3 3 3 3 4
5 6 5 4 1 2 3 2 2 2 1 2 2 3 3 3 5 4 4 3 2 7 9 11 11 11 10 9 8 7 7 7 7 6 5 4 3 3 3 3 3 3 3
5 6 6 4 3 2 2 3 2 3 2 2 2 2 2 4 3 3 3 4 3 3 5 9 12 13 13 11 10 9 8 8 7 6 5 3 2 2 3 4 3 3 2
5 4 5 6 5 6 5 6 5 6 5 4 4 3 3 4 2 4 4 4 5 3 3 3 8 14 15 14 13 11 10 9 7 6 4 3 3 3 4 4 4 4 5
4 4 2 2 3 4 6 7 7 5 5 4 4 3 4 4 3 2 3 3 5 5 4 3 2 5 14 15 15 15 13 10 8 5 4 4 5 5 5 5 5 6 6
4 4 3 2 1 2 5 6 6 6 5 5 4 3 3 3 2 3 2 3 3 2 3 3 2 3 8 15 17 17 16 12 8 6 4 4 7 8 8 7 7 6 6
2 3 3 2 1 3 5 4 3 6 4 4 4 4 3 2 2 1 3 3 3 4 2 3 2 3 5 11 15 21 18 14 10 8 6 5 7 9 9 8 7 6 5
2 2 3 2 1 3 4 3 2 3 5 5 4 3 2 1 1 2 2 3 3 4 3 3 4 4 6 8 13 21 18 16 13 11 9 7 6 7 8 8 7 7 6
2 2 2 1 2 4 4 4 2 3 3 4 5 4 3 2 2 3 4 3 2 3 4 6 3 4 7 11 17 21 17 17 16 14 12 10 9 8 8 8 8 7 6
3 3 1 1 3 5 5 5 3 3 3 2 2 2 2 2 2 3 3 4 5 3 4 6 5 4 6 10 16 18 15 19 19 17 15 14 12 11 10 10 9 8 7
2 1 1 3 5 6 6 6 3 3 2 1 2 2 2 2 3 4 4 4 5 5 4 3 4 2 1 3 12 15 16 20 22 21 19 18 16 15 14 13 11 10 9
1 3 4 4 6 8 9 7 5 3 2 2 3 5 7 6 4 3 3 3 4 4 5 4 3 2 2 1 4 8 10 12 17 22 22 21 20 18 17 15 14 13 12
3 4 5 6 7 8 8 7 6 3 2 3 5 4 4 2 2 0 1 2 3 4 5 5 4 3 4 3 3 4 5 9 12 20 24 23 21 20 19 18 17 16 15
5 5 5 5 4 1 2 4 5 3 3 3 4 2 2 4 3 1 1 2 2 3 4 4 4 4 4 3 3 4 5 5 7 11 20 22 22 21 21 21 20 19 18
5 5 5 4 4 5 5 3 2 1 1 2 3 1 2 2 4 3 2 2 2 2 2 3 4 3 3 3 3 4 5 5 5 4 9 14 18 21 22 22 22 21 20
9 8 8 9 10 9 10 9 4 1 2 3 4 3 1 6 7 4 2 3 3 3 1 1 1 1 2 2 3 3 4 4 3 2 2 5 7 9 14 19 22 22 22
10 10 11 11 12 10 13 13 8 4 3 2 3 3 1 4 6 6 4 4 2 2 2 2 1 1 2 2 1 1 1 1 2 2 1 2 2 4 6 11 16 22 24
9 10 9 9 9 10 15 14 11 5 3 3 3 3 2 1 3 3 6 8 7 6 4 1 2 2 1 1 1 1 1 1 1 1 2 3 2 3 3 4 6 9 16
7 7 7 7 6 10 16 16 16 5 3 3 3 4 3 2 1 2 2 2 2 5 6 3 3 4 4 4 3 2 1 0 1 1 1 2 3 3 3 6 9 7 2
6 6 6 7 7 9 16 19 17 6 5 5 4 3 3 2 5 4 3 3 4 1 3 4 5 4 3 2 2 2 2 1 1 1 2 1 2 3 2 3 6 8 7
4 5 5 5 6 6 11 17 16 7 8 7 7 5 8 7 7 7 4 3 3 3 2 2 2 2 1 2 1 0 0 1 1 1 2 1 2 3 2 2 2 4 4
Wind_Direction
203 186 179 171 190 193 174 245 249 180 1 83 88 49 79 92 84 96 116 108 111 122 181 211 203 188 183 192 200 190 182 184 188 179 172 168 162 159 161 160 152 135 118
190 172 188 159 191 178 172 225 245 116 102 58 47 49 5 92 112 123 136 132 124 115 116 134 170 184 191 201 212 200 179 176 182 183 184 183 177 174 177 179 177 165 148
187 171 197 161 187 188 192 221 343 96 109 104 133 305 64 44 35 121 146 152 140 123 116 116 130 161 182 185 183 177 175 175 180 187 193 198 201 200 200 189 177 170 169
188 176 155 148 189 185 171 117 39 42 110 154 192 179 128 122 250 357 227 161 151 142 133 127 125 130 144 152 154 159 164 169 175 177 178 177 189 197 196 193 192 197 199
188 153 135 134 200 151 130 140 157 200 144 153 112 107 288 190 185 222 260 161 151 151 145 136 128 125 131 139 143 144 145 147 145 142 139 138 146 165 190 213 223 215 200
180 138 131 168 232 137 121 119 143 106 40 37 290 237 210 203 230 245 309 2 185 156 150 150 141 130 128 134 139 142 141 139 138 138 140 144 157 181 201 213 215 203 197
146 122 130 141 96 123 148 183 124 96 23 343 319 310 295 238 227 215 191 247 259 141 150 164 156 142 133 129 134 144 149 150 148 147 145 148 168 192 204 208 212 205 200
154 140 141 151 172 168 186 212 158 145 206 244 235 254 303 316 290 252 194 186 266 184 199 187 161 153 153 147 139 137 139 143 144 147 149 155 176 197 200 202 203 195 164
154 154 163 177 196 187 195 210 203 184 200 233 241 205 189 230 275 298 239 198 217 234 221 209 179 167 160 155 150 146 144 144 144 147 152 159 173 180 182 184 178 153 132
146 157 163 168 198 192 196 208 209 190 189 222 253 247 219 203 172 280 312 265 221 212 211 230 224 177 165 156 158 156 153 152 154 157 160 160 160 158 156 152 145 137 130
132 127 112 100 278 269 240 221 192 170 172 199 220 234 255 283 247 194 258 300 312 245 196 227 195 232 163 152 158 165 165 165 166 173 177 171 163 156 150 146 147 148 149
102 118 118 128 245 280 277 260 170 157 173 203 210 206 202 210 238 183 221 253 272 290 261 227 221 216 180 161 169 169 170 172 175 178 179 174 168 165 164 164 170 175 181
101 126 128 137 262 284 292 285 221 172 190 206 213 206 166 193 200 189 212 245 256 269 281 259 219 216 195 153 157 167 173 177 182 186 188 184 178 177 179 183 193 201 207
77 54 91 132 235 268 279 280 275 231 228 228 206 183 164 208 227 209 208 213 251 264 249 254 244 214 207 178 173 175 181 186 191 195 197 197 198 199 204 208 212 212 214
58 39 21 328 270 260 258 262 236 253 255 277 34 57 132 201 230 243 231 204 199 231 249 241 243 234 207 193 183 186 185 195 200 203 205 205 208 212 217 217 216 213 212
25 15 248 230 237 244 251 258 261 264 321 358 79 4 300 250 234 234 234 230 211 208 238 253 227 233 217 182 179 188 196 201 205 206 207 209 211 215 220 223 222 219 217
259 249 245 244 234 233 231 222 213 215 239 285 245 221 230 228 223 225 225 225 228 217 232 258 241 235 213 201 176 216 217 202 206 210 211 211 212 216 221 225 227 226 226
278 251 248 251 247 226 207 187 178 181 206 257 274 265 245 199 171 207 278 261 248 233 227 250 251 238 234 226 207 231 238 220 207 214 214 215 215 217 221 226 229 231 231
291 276 246 246 267 309 121 134 150 181 221 240 258 285 6 61 67 38 326 308 286 267 228 228 248 235 237 233 235 246 251 253 234 218 212 217 219 221 224 227 231 233 234
306 330 349 359 22 37 37 37 89 143 277 299 298 247 193 110 84 43 22 8 341 311 259 236 249 243 235 229 211 230 246 247 238 220 204 213 221 225 228 230 234 236 236
12 17 17 28 36 38 23 11 1 328 279 308 324 325 101 115 111 95 50 7 357 340 339 297 279 270 250 221 212 207 231 258 264 239 219 211 210 219 229 236 238 240 238
27 32 42 48 45 32 16 16 5 333 299 285 300 320 98 158 155 167 197 221 237 344 10 10 331 299 289 254 235 199 215 251 280 321 326 279 230 236 232 228 234 235 235
43 46 50 53 52 27 16 14 7 331 306 293 296 305 313 326 170 204 221 227 233 225 224 348 2 357 19 56 115 142 181 202 256 334 33 306 313 302 303 317 315 270 240
60 53 45 44 53 30 20 14 359 343 330 310 286 274 271 282 303 359 335 264 243 195 206 202 92 76 67 51 60 67 96 32 304 348 76 314 348 353 8 20 31 33 5
58 64 42 29 39 33 24 21 9 354 2 355 338 342 347 359 50 27 347 340 9 56 171 129 110 108 102 72 48 46 39 21 315 346 53 3 345 340 4 7 20 30 26
35 82 59 33 37 47 33 26 18 12 5 354 350 24 50 55 50 32 4 8 21 9 28 137 149 160 150 159 178 201 94 58 8 36 41 27 3 0 1 345 339 356 3
Height
1548 1549 1550 1550 1551 1553 1554 1555 1556 1558 1559 1560 1561 1562 1562 1562 1562 1561 1560 1559 1558 1558 1558 1558 1558 1559 1559 1560 1561 1562 1564 1565 1567 1568 1569 1570 1571 1572 1573 1574 1574 1575 1575
1546 1548 1550 1550 1552 1554 1554 1555 1556 1557 1558 1559 1560 1561 1562 1562 1561 1560 1559 1559 1558 1557 1557 1557 1558 1558 1559 1559 1560 1561 1562 1564 1566 1567 1568 1570 1571 1571 1572 1573 1574 1574 1574
1545 1547 1548 1549 1551 1553 1554 1555 1556 1557 1558 1558 1559 1561 1561 1561 1561 1561 1559 1558 1558 1557 1557 1557 1557 1558 1558 1559 1560 1561 1562 1563 1564 1566 1567 1568 1570 1570 1571 1572 1573 1573 1573
1543 1545 1547 1548 1550 1551 1553 1554 1554 1556 1557 1558 1559 1559 1560 1560 1560 1560 1560 1559 1558 1558 1557 1557 1557 1557 1558 1558 1559 1560 1561 1562 1563 1564 1566 1567 1568 1569 1570 1571 1571 1571 1571
1540 1542 1543 1546 1548 1550 1551 1552 1553 1555 1556 1557 1558 1558 1559 1559 1559 1559 1559 1560 1559 1558 1557 1557 1557 1557 1558 1558 1559 1559 1560 1561 1562 1563 1564 1565 1566 1567 1568 1568 1569 1569 1569
1538 1539 1540 1543 1546 1547 1549 1550 1552 1553 1554 1555 1557 1558 1558 1558 1558 1558 1558 1559 1559 1558 1557 1557 1557 1557 1557 1558 1558 1558 1559 1560 1561 1562 1563 1563 1564 1565 1566 1566 1567 1567 1567
1534 1535 1537 1540 1543 1544 1546 1548 1550 1551 1552 1554 1555 1555 1556 1557 1557 1557 1557 1557 1559 1558 1558 1557 1556 1556 1556 1557 1558 1558 1558 1559 1559 1560 1561 1562 1563 1563 1564 1564 1565 1565 1565
1530 1532 1534 1536 1539 1541 1543 1545 1547 1548 1549 1551 1552 1553 1554 1555 1554 1555 1555 1555 1556 1557 1557 1556 1556 1555 1555 1556 1557 1558 1558 1558 1559 1559 1560 1561 1562 1562 1562 1563 1563 1563 1564
1525 1528 1530 1532 1535 1537 1539 1541 1543 1544 1546 1548 1549 1551 1551 1551 1552 1552 1553 1553 1554 1555 1555 1556 1556 1554 1554 1555 1556 1557 1557 1558 1558 1558 1558 1559 1560 1561 1561 1561 1562 1562 1562
1520 1523 1526 1528 1531 1533 1535 1538 1539 1541 1543 1544 1546 1547 1549 1549 1550 1550 1551 1551 1552 1552 1553 1554 1554 1554 1553 1552 1554 1555 1556 1556 1557 1557 1557 1558 1558 1559 1560 1561 1561 1561 1561
1515 1518 1521 1524 1526 1529 1532 1534 1536 1538 1540 1541 1543 1544 1545 1546 1547 1548 1548 1549 1550 1550 1550 1551 1552 1552 1552 1551 1551 1553 1554 1554 1555 1555 1556 1556 1557 1558 1559 1560 1560 1560 1559
1510 1513 1516 1519 1522 1525 1528 1530 1533 1535 1537 1538 1540 1541 1543 1543 1544 1545 1545 1546 1546 1547 1547 1547 1548 1549 1550 1549 1549 1550 1551 1551 1552 1553 1554 1555 1555 1556 1557 1558 1558 1558 1557
1507 1510 1512 1515 1518 1521 1524 1527 1530 1532 1534 1535 1536 1538 1539 1540 1541 1542 1542 1543 1543 1544 1544 1544 1544 1545 1546 1546 1546 1547 1548 1549 1549 1550 1551 1552 1553 1554 1555 1555 1556 1556 1555
1505 1507 1509 1512 1515 1518 1522 1524 1527 1529 1531 1533 1534 1534 1535 1536 1537 1537 1539 1539 1539 1540 1540 1540 1541 1541 1542 1542 1543 1544 1545 1545 1546 1547 1548 1549 1550 1551 1552 1553 1553 1553 1553
1503 1505 1507 1509 1512 1516 1519 1522 1524 1526 1529 1530 1531 1532 1532 1532 1533 1533 1534 1535 1536 1536 1536 1536 1537 1537 1538 1539 1539 1540 1541 1542 1543 1544 1545 1546 1547 1548 1550 1550 1550 1550 1550
1503 1505 1507 1509 1512 1514 1517 1519 1522 1524 1526 1527 1527 1528 1529 1529 1530 1530 1530 1531 1531 1532 1532 1532 1533 1534 1535 1535 1536 1537 1538 1539 1540 1541 1542 1543 1544 1545 1546 1547 1548 1548 1548
1505 1507 1508 1509 1511 1513 1515 1518 1519 1521 1522 1524 1525 1525 1526 1526 1527 1527 1527 1527 1527 1528 1528 1529 1531 1531 1531 1532 1532 1533 1534 1535 1536 1538 1539 1540 1541 1542 1543 1544 1545 1545 1545
1508 1508 1509 1510 1511 1512 1513 1515 1517 1519 1520 1521 1522 1523 1524 1525 1525 1525 1524 1524 1524 1524 1525 1525 1526 1527 1527 1528 1528 1529 1530 1532 1533 1534 1536 1537 1538 1539 1540 1541 1541 1542 1543
1509 1509 1510 1510 1511 1512 1512 1513 1514 1516 1517 1518 1520 1521 1522 1523 1523 1522 1521 1521 1520 1521 1521 1521 1522 1522 1523 1523 1524 1524 1526 1528 1530 1531 1532 1533 1534 1535 1535 1536 1537 1538 1538
1510 1510 1510 1511 1511 1510 1510 1511 1512 1513 1515 1516 1518 1519 1520 1521 1521 1521 1520 1519 1518 1518 1518 1518 1518 1518 1518 1519 1519 1520 1522 1524 1526 1527 1528 1529 1530 1530 1531 1531 1532 1532 1533
1511 1511 1510 1510 1509 1509 1509 1510 1511 1512 1513 1514 1516 1517 1518 1519 1519 1520 1519 1518 1517 1516 1516 1515 1515 1515 1515 1515 1516 1517 1518 1520 1522 1523 1524 1524 1525 1525 1525 1526 1526 1526 1527
1511 1510 1510 1509 1509 1509 1509 1509 1510 1511 1512 1513 1514 1515 1516 1517 1518 1518 1518 1518 1517 1516 1515 1514 1514 1514 1513 1513 1513 1514 1515 1517 1518 1520 1520 1521 1520 1519 1519 1520 1520 1521 1521
1511 1511 1510 1510 1510 1509 1509 1509 1509 1510 1510 1511 1512 1513 1514 1515 1516 1517 1517 1517 1517 1516 1516 1515 1514 1513 1513 1512 1512 1512 1513 1515 1515 1516 1516 1516 1517 1516 1515 1515 1514 1515 1515
1514 1513 1512 1511 1511 1510 1509 1509 1509 1509 1509 1510 1510 1510 1511 1512 1513 1514 1515 1516 1516 1516 1515 1515 1514 1513 1513 1513 1512 1513 1514 1514 1515 1515 1514 1514 1514 1513 1512 1511 1511 1510 1510
1516 1515 1514 1513 1512 1511 1510 1509 1509 1508 1508 1508 1508 1508 1508 1508 1509 1511 1513 1513 1514 1515 1515 1514 1514 1513 1513 1512 1513 1513 1514 1514 1514 1514 1513 1513 1512 1511 1510 1509 1508 1508 1508
1519 1518 1517 1516 1514 1513 1512 1510 1509 1508 1507 1506 1506 1505 1505 1505 1506 1508 1509 1510 1512 1513 1513 1513 1514 1513 1513 1513 1513 1513 1513 1513 1513 1513 1512 1512 1511 1510 1509 1508 1508 1507 1506